Hourly Weather Roundup
Issued by NWS Central Illinois

Home | Current Version | Previous Version | Text Only | Print | Product List | Glossary On
Versions: 1 2 3 4 5 6 7 8 9 10 11 12 13 14 15 16 17 18 19 20 21 22 23 24 25 26 27 28 29 30 31 32 33 34 35 36 37 38 39 40 41 42 43 44 45 46 47 48 49 50
000
NZUS43 KILX 060510
HWRILX

AREA WEATHER ROUNDUP
NATIONAL WEATHER SERVICE, LINCOLN IL
1200 AM CDT FRI MAY 06 2016


CITY           SKY/WX    TMP DP  RH WIND       PRES   REMARKS
BLOOMINGTON    CLEAR     54  43  66 NW5       30.02R
CHAMPAIGN      PTCLDY    49  42  77 NW5       30.00S
DANVILLE       PTCLDY    47  42  85 CALM      29.97R
DECATUR        CLEAR     52  41  66 NW8       30.01R
EFFINGHAM      PTCLDY    48  47  98 CALM      30.02S
FLORA          PTCLDY    54  47  77 NW6       30.01R
GALESBURG      CLEAR     45  40  83 CALM      30.01S
JACKSONVILLE   CLEAR     49  41  73 CALM      30.02S
LACON          CLEAR     46  41  83 CALM      30.00S
LAWRENCEVILLE  CLEAR     51  44  77 CALM      30.00R
LITCHFIELD     CLEAR     49  44  82 CALM      30.02S
$$


CITY           SKY/WX    TMP DP  RH WIND       PRES   REMARKS
LINCOLN        CLEAR     50  45  81 CALM      30.01S
MACOMB         CLEAR     48  40  74 SW3       30.04R
MATTOON        CLEAR     51  44  77 CALM      29.99S
MT CARMEL AP   PTCLDY    48  45  87 CALM      30.00R
OLNEY-NOBLE AP CLEAR     52  45  76 NW6       30.00S
PARIS          CLEAR     47  44  90 CALM      30.00S
PEORIA         CLEAR     47  42  83 CALM      30.02R
PONTIAC        CLEAR     51  44  76 CALM      30.00S
RANTOUL        CLEAR     50  45  83 CALM      30.00S
ROBINSON       PTCLDY    47  43  85 CALM      30.01R
SPRINGFIELD    CLEAR     50  44  80 SW3       30.02R
TAYLORVILLE    CLEAR     49  46  89 CALM      30.02R
$$

...REGIONAL REPORTS...


CITY           SKY/WX    TMP DP  RH WIND       PRES   REMARKS
CHICAGO O`HARE CLEAR     47  37  68 CALM      29.98F
KANKAKEE       CLEAR     45  41  86 CALM      30.01R
MOLINE         CLEAR     48  42  80 CALM      29.99S
MOUNT STERLING CLEAR     45  41  85 CALM      30.02S
MOUNT VERNON   PTCLDY    45  39  81 CALM      30.02R
PITTSFIELD     CLEAR     49  45  87 CALM      30.04S
QUINCY         CLEAR     51  41  68 SW5       30.02F
ROCKFORD       CLEAR     49  40  71 S3        30.00S
$$


CITY           SKY/WX    TMP DP  RH WIND       PRES   REMARKS
BURLINGTON     CLEAR     50  41  71 CALM      30.00F
CEDAR RAPIDS   CLEAR     50  40  68 S3        29.98F
DES MOINES     CLEAR     56  39  53 S7        30.00F
KIRKSVILLE     CLEAR     47  39  74 CALM      30.04S
OTTUMWA        CLEAR     50  38  63 S6        30.00F
ST LOUIS       CLEAR     54  44  69 CALM      30.03S
$$


CITY           SKY/WX    TMP DP  RH WIND       PRES   REMARKS
TERRE HAUTE    CLEAR     49  42  77 CALM      29.99R
EVANSVILLE     CLEAR     46  44  93 SW3       29.99S
INDIANAPOLIS   PTCLDY    50  41  71 N7        29.95S
LAFAYETTE      CLEAR     43  41  93 CALM      29.98S
MADISON        CLEAR     46  36  68 CALM      29.96F
MILWAUKEE      PTCLDY    47  37  68 SW3       29.98S
$$





USA.gov is the U.S. government's official web portal to all federal, state and local government web resources and services.